This is the latest recevied weather packets stored in our database for station/object IU7URP-13. If no packets are shown the sender has not sent any weather packets the latest 10 day(s).
| Time | Temp. | Humidity | Pressure | Rain* | Wind** | Luminosity | Snow |
|---|---|---|---|---|---|---|---|
| 1777476587 | 23.33° C | 31% | 1016.7 hPa | - | - | - | - |
| 1777475385 | 24.44° C | 31% | 1017 hPa | - | - | - | - |
| 1777474184 | 24.44° C | 30% | 1017 hPa | - | - | - | - |
| 1777472982 | 24.44° C | 30% | 1017.1 hPa | - | - | - | - |
| 1777471781 | 24.44° C | 30% | 1017.1 hPa | - | - | - | - |
| 1777470580 | 24.44° C | 30% | 1017.3 hPa | - | - | - | - |
| 1777469378 | 24.44° C | 33% | 1017.5 hPa | - | - | - | - |
| 1777468177 | 24.44° C | 34% | 1017.6 hPa | - | - | - | - |
| 1777467202 | 24.44° C | 35% | 1017.8 hPa | - | - | - | - |
| 1777466000 | 24.44° C | 42% | 1017.9 hPa | - | - | - | - |
| 1777464799 | 24.44° C | 42% | 1017.9 hPa | - | - | - | - |
| 1777463598 | 24.44° C | 49% | 1018.1 hPa | - | - | - | - |
| 1777462396 | 24.44° C | 59% | 1018.2 hPa | - | - | - | - |
| 1777461195 | 25° C | 61% | 1018.4 hPa | - | - | - | - |
| 1777459994 | 24.44° C | 69% | 1018.6 hPa | - | - | - | - |
| 1777458792 | 25° C | 99% | 1018.8 hPa | - | - | - | - |
| 1777457591 | 23.89° C | 99% | 1019 hPa | - | - | - | - |
| 1777456389 | 23.89° C | 99% | 1019.3 hPa | - | - | - | - |
| 1777455188 | 23.89° C | 99% | 1019.4 hPa | - | - | - | - |
| 1777453987 | 23.33° C | 99% | 1019.6 hPa | - | - | - | - |
| 1777452785 | 23.33° C | 99% | 1019.6 hPa | - | - | - | - |
| 1777451584 | 24.44° C | 99% | 1019.7 hPa | - | - | - | - |
| 1777450383 | 22.78° C | 99% | 1019.8 hPa | - | - | - | - |
| 1777449182 | 23.33° C | 99% | 1019.7 hPa | - | - | - | - |
| 1777447980 | 21.67° C | 99% | 1019.8 hPa | - | - | - | - |
* Rain since midnight (hover to see other rain measurements)
** Current wind speed in m/s (hover to see current wind gust speed)